Theta_e
350 352 352 352 354 355 357 360 359 354 352 353 350 351 351 352 354 354 353 352 353 351 352 353 355 353 349 347 347 345 343 341
349 351 351 352 353 356 359 361 359 358 353 353 353 352 352 352 354 357 355 353 353 351 347 348 350 348 347 345 342 344 346 347
352 352 352 353 353 357 360 361 361 359 357 355 354 353 353 354 354 357 355 352 353 352 350 348 347 346 346 345 343 345 345 344
351 350 351 353 355 357 360 361 363 361 360 361 357 358 357 356 354 355 356 355 354 352 352 349 347 347 347 347 345 347 350 351
350 354 354 356 357 359 360 361 361 359 362 362 360 359 357 356 355 358 357 357 357 357 351 349 347 354 354 354 355 353 353 354
333 350 355 358 359 360 363 358 358 357 362 361 358 358 357 356 356 357 358 358 358 357 352 350 350 361 359 355 353 354 350 352
320 334 353 358 361 363 362 361 358 359 362 357 358 360 357 356 356 357 359 358 357 359 358 356 355 355 351 349 347 347 342 346
319 324 336 351 359 363 362 356 362 362 357 357 356 355 357 357 364 363 356 355 350 349 346 345 343 339 339 344 341 343 343 344
319 322 328 337 349 355 356 353 358 355 350 351 350 350 352 353 354 353 349 349 346 345 342 334 332 330 333 338 341 342 342 342
317 320 326 334 342 350 353 353 353 353 353 355 353 351 353 353 353 351 347 343 343 341 338 332 330 330 329 336 338 336 336 338
317 318 322 329 336 345 350 352 349 352 356 354 357 353 352 348 347 345 345 342 338 339 338 335 332 328 332 339 338 338 335 340
316 321 323 328 332 341 349 351 348 350 355 353 353 348 344 346 346 343 337 337 335 335 336 340 338 338 338 337 335 334 332 333
315 320 325 329 336 344 346 346 347 350 351 353 350 353 356 351 342 337 336 338 340 338 339 336 335 330 329 329 329 328 328 326
316 320 330 337 340 339 342 340 345 347 344 342 342 341 343 338 335 333 330 331 330 330 328 329 330 329 326 325 326 323 323 322
317 330 331 331 332 334 332 332 326 327 330 330 328 328 332 334 334 334 332 330 331 331 332 330 327 326 324 322 322 323 322 319
328 328 326 328 330 331 332 331 328 333 333 330 331 329 322 325 330 333 331 329 325 327 326 325 323 323 324 326 322 321 322 321
323 324 328 330 331 333 334 334 334 333 331 330 326 323 320 323 325 327 324 325 323 323 322 322 322 322 322 323 321 322 321 321
322 325 327 329 330 333 332 332 331 331 329 329 326 322 320 322 322 322 322 322 322 321 321 321 322 321 320 321 320 320 319 319
320 322 325 327 329 329 329 329 329 328 327 326 322 320 320 322 321 321 322 323 321 320 320 321 321 321 320 320 319 318 318 319
319 322 326 327 326 326 326 326 324 325 324 322 321 320 321 321 320 321 322 321 321 320 321 320 318 317 318 318 317 317 317 317
Wind_Speed
16 17 18 18 18 15 17 16 15 15 13 11 9 8 8 9 13 13 11 8 8 8 6 8 8 10 8 10 10 9 12 10
16 18 18 20 19 17 16 17 15 14 11 11 11 10 10 9 10 12 8 6 7 7 6 8 8 8 9 8 7 8 7 9
15 16 17 17 18 17 18 17 15 13 12 10 9 9 9 10 10 12 9 9 7 8 6 6 6 7 7 6 6 6 8 9
15 14 16 17 17 17 17 17 16 14 13 12 9 9 9 8 9 10 12 8 6 7 6 7 6 5 5 5 5 6 6 7
16 16 16 17 15 16 17 17 15 14 14 12 9 9 8 9 9 10 12 10 7 8 6 5 5 3 3 3 5 5 6 6
15 16 15 15 15 17 16 14 15 15 14 10 7 8 9 9 8 9 12 11 9 8 6 5 4 0 2 2 3 3 3 5
13 16 15 15 15 14 16 15 15 16 10 9 10 10 9 8 8 8 9 9 7 5 4 3 4 2 1 1 1 2 4 4
15 16 15 14 14 13 13 10 14 13 9 6 8 8 8 6 5 4 7 7 9 9 8 11 10 7 1 4 3 3 3 7
16 14 14 14 13 13 13 13 10 9 9 10 9 9 6 5 6 9 9 9 11 11 9 7 7 10 13 9 4 4 6 5
15 15 14 14 15 14 14 13 11 9 10 9 6 9 8 8 7 8 10 9 8 11 11 8 9 9 6 13 5 7 6 2
18 16 15 15 15 15 13 12 11 9 8 7 5 7 6 6 9 6 8 8 9 10 12 10 9 9 10 8 5 8 8 2
19 16 15 15 14 12 12 13 11 9 9 9 10 9 9 9 8 6 6 7 8 9 6 6 6 5 5 3 2 3 3 6
19 18 15 11 11 12 12 13 12 10 8 5 9 7 5 6 7 9 8 6 7 7 5 7 6 4 4 3 2 1 2 4
17 14 13 11 11 12 13 11 9 10 10 12 9 10 7 9 9 8 7 5 6 7 9 7 6 6 4 4 2 2 3 4
16 17 15 14 15 13 14 16 15 16 17 18 16 15 9 1 8 8 8 6 6 7 6 5 5 5 4 2 1 0 2 4
16 16 15 17 17 16 16 17 16 18 19 18 16 18 13 11 5 6 6 5 5 5 5 5 5 4 3 2 1 4 4 4
16 16 16 17 15 17 19 20 19 17 15 14 16 15 16 12 1 6 5 6 6 5 5 5 4 4 4 4 3 4 5 5
17 15 16 15 19 19 18 13 14 13 12 13 11 14 17 10 6 7 7 6 5 5 5 4 3 4 5 5 4 4 6 6
15 15 14 16 16 16 16 16 17 15 15 15 16 14 12 9 7 7 7 6 5 4 3 2 1 2 4 5 5 5 6 6
17 17 19 19 18 18 17 17 17 15 16 16 15 14 11 7 7 6 6 5 3 3 2 0 3 4 5 6 6 6 7 8
Wind_Direction
195 193 177 169 169 169 170 171 180 182 176 168 178 176 180 191 190 181 203 187 189 205 188 195 206 197 206 196 194 219 211 229
203 195 175 173 171 173 176 174 180 193 179 183 182 182 184 194 196 192 200 203 185 209 213 204 212 196 217 203 205 222 235 235
205 197 175 171 175 178 179 179 183 189 196 190 192 203 188 195 189 194 205 211 197 203 214 233 218 230 202 215 231 209 217 236
192 194 177 181 179 180 181 187 186 189 196 190 192 201 180 201 196 193 210 216 200 215 216 222 238 249 255 233 224 233 231 251
201 190 187 190 186 178 187 188 186 194 199 191 201 189 199 198 198 198 203 206 204 240 224 225 231 205 235 266 328 300 277 274
211 203 204 191 194 188 186 187 184 196 197 186 211 179 208 205 204 195 200 202 217 207 236 235 213 261 264 283 254 303 303 290
206 208 202 194 200 189 188 187 188 193 195 167 197 196 213 199 198 206 194 204 215 250 358 3 9 356 10 253 196 302 301 312
198 202 202 200 192 191 187 195 196 175 163 188 194 181 201 194 197 119 112 102 85 80 65 56 35 6 319 281 42 14 318 312
203 198 195 194 189 189 176 192 195 152 168 186 190 188 167 143 166 123 124 122 118 110 96 81 39 49 329 334 305 325 268 254
190 196 198 194 191 190 184 185 161 169 186 202 182 149 179 170 143 146 151 139 140 128 130 125 123 97 299 294 289 276 253 270
195 196 193 197 198 193 182 169 165 186 181 165 145 131 125 162 144 154 166 171 152 145 151 150 152 165 204 220 256 255 286 355
192 193 194 198 196 180 173 159 160 181 179 167 174 174 175 173 163 150 147 141 136 140 160 147 138 187 199 114 264 285 255 263
197 194 192 180 170 160 153 155 165 153 164 184 186 186 188 151 130 113 100 87 82 70 95 96 104 87 99 121 127 355 244 294
196 180 142 128 136 147 146 113 127 136 101 70 55 92 128 140 131 125 117 107 100 101 101 108 120 137 129 112 129 94 349 318
180 143 141 144 147 132 125 114 103 96 94 87 73 63 46 93 115 134 142 136 129 110 116 140 132 115 121 132 116 239 3 340
151 145 150 145 144 141 135 126 123 117 114 113 111 97 77 351 15 88 93 91 94 120 127 136 130 122 104 46 187 336 356 327
132 147 148 141 142 142 130 128 128 137 136 121 109 112 116 103 130 107 104 106 130 136 125 107 88 72 43 348 23 316 325 316
138 137 129 132 130 128 127 128 119 118 115 107 112 96 101 150 158 132 121 120 115 141 123 103 77 37 5 339 334 344 311 305
128 123 129 133 126 122 122 119 118 118 108 104 101 108 113 140 144 134 139 130 130 157 134 123 43 346 331 312 307 283 301 302
124 135 131 129 122 116 114 114 111 110 110 110 109 107 118 126 135 138 135 132 161 170 165 13 336 329 314 310 310 324 318 321